STARLINK-11253, 60935

Orbit data source: Space-Track

STARLINK-11253, 60935 is a payload satellite owned by SpaceX/Seattle (US) in LEO that was launched on Sat, 31 Aug 2024 UTC via an FALCON 9 launch vehicle from the Air Force Western Test Range (AFWTR). Payload-class satellites include a variety of spacecraft equipped with specific instruments for various scientific and technological missions. These include communications satellites like Starlink; space stations such as the ISS; scientific satellites like the Hubble; Earth observation satellites from companies like Planet Labs, Umbra, and HawkEye 360; GPS; miniature CubeSats for education and research; and military/defense satellites.

Loading next visibility...
Identifier
60935, 2024-155M
Orbit
LEO
Country
Flag of USUS
Related business
Manufacturer
SpaceX/Seattle
Mission
Operational Commercial Communications
Bus & Motor
STARLINK V2MD, Unknown motor
Mass
960 kg wet, ~910 kg dry
Launch date (UTC)
2024-08-31 (2 years ago)
Launch vehicle
FALCON 9
Launch site
Air Force Western Test Range (AFWTR)
Object type
Payload
Rocket body
Debris
Shape & HBR
Box + 2 Pan, 18.1 m
Radar Cross Section
36.964 m², Large (>1 m²)

Expand to show TLE details & history
Last TLE update: 12 hours ago

TLE from 12 hours ago
0 STARLINK-11253
1 60935U 24155M   26171.35892056  .00002851  00000-0  28394-4 0  9991
2 60935  53.1597 195.4289 0001184  82.1478 277.9674 15.69702723104523
Epoch: 2026-06-20T08:36Z
TLE epoch observation values (Epoch: 2026-06-20T08:36:50.736Z)
Latitude
-0.00004°
Longitude
157.64279°
Altitude
360.552 km
Speed
7.694 km/s
True Right ascension
13h 01m 42s
True Declination
0° 00' 00"
Sunlit
Object was in daylight at epoch
Visualization orbit readout
Latitude
Unknown
Longitude
Unknown
Altitude
Unknown
Speed
Unknown
Apparent Right ascension
Unknown
Apparent Declination
Unknown
Sunlit
N/A
Visualization observer readout
Local Sidereal Time
07:12:41
Azimuth
Unknown
Elevation
Unknown
Doppler factor
Unknown
Orbital elements
Apogee altitude
360.806 km
Perigee altitude
359.211 km
Semi-major axis
6,738.145 km
Eccentricity
0.00012
Inclination
53.1597°
RAAN
195.4289°
Arg. of periapsis
82.1478°
True anomaly
277.95396°
Mean anomaly
277.9674°
Eccentric anomaly
277.96068°
Mean motion
3.92403 °/min
Orbital period
91.74 mins
BSTAR
0.000028394
Loading maneuver chart data...
Computing Atmospheric mass density...
Loading historical data...
Loading historical data...
Loading historical data...
Loading historical data...
Loading historical data...
Loading historical data...
Loading historical data...

Documentation

Showing up to 5 results
|